Date String (YYYY-MM-DD hh:mm:ss) UTC,Instrument flags,absolute air pressure of the measurement (hPa),sample flow rate (lpm),inlet stack bypass flow (lpm),air temperature of the measurement (°C),ambient temperature measured by the external sensor (°C),aerosol sample conditioner tube jacket temperature (°C),OPC LED temperature (°C),internal box temperature (°C),relative humidity of the measurement (%),span deviation,mass concentration of particles derived from Lorenz-Mie calculation of OPC scattering (μg/m³),mass concentration of particles derived from Lorenz-Mie calculation of OPC scattering (μg/m³),mass concentration of particles derived from Lorenz-Mie calculation of OPC scattering (μg/m³)
DateTimeUTC,F1_M11,P_M11,Q1_M11,Q2_M11,T1_M11,T2_M11,T3_M11,T4_M11,T5_M11,U1_M11,ZSPAN_M11,X2_M11,X0_M11,X1_M11
2023-07-21 04:00:00,SystemResetWarning,0840.5,4.99,000.00,030.4,028.6,000.0,038.7,031.7,34.1,0000.0,0001.70,0002.96,0001.54
2023-07-21 04:01:00,SystemResetWarning,0840.5,5.00,000.00,030.3,027.1,000.0,038.6,031.5,34.2,0000.0,0001.65,0002.83,0001.52
2023-07-21 04:02:00,SystemResetWarning,0840.5,5.01,000.00,030.3,025.7,000.0,038.5,031.3,34.3,0000.0,0001.62,0002.79,0001.49
2023-07-21 04:03:00,SystemResetWarning,0840.4,5.01,000.00,030.1,025.4,000.0,038.4,031.0,34.5,0000.0,0001.64,0002.87,0001.49
2023-07-21 04:04:00,SystemResetWarning,0840.5,5.00,000.00,030.0,025.7,000.0,038.5,030.9,34.7,0000.0,0001.65,0002.92,0001.47
2023-07-21 04:05:00,SystemResetWarning,0840.5,5.00,000.00,029.9,026.1,000.0,038.5,030.9,34.9,0000.0,0001.65,0002.94,0001.46
2023-07-21 04:06:00,SystemResetWarning,0840.4,4.99,000.00,029.9,026.5,000.0,038.5,031.0,35.1,0000.0,0001.62,0002.85,0001.43
2023-07-21 04:07:00,SystemResetWarning,0840.5,5.01,000.00,030.1,026.9,000.0,038.5,031.2,34.6,0000.0,0001.61,0002.96,0001.42
2023-07-21 04:08:00,SystemResetWarning,0840.6,4.99,000.00,030.2,027.2,000.0,038.5,031.3,34.4,0000.0,0001.63,0003.02,0001.40
2023-07-21 04:09:00,SystemResetWarning,0840.5,5.01,000.00,030.3,027.5,000.0,038.5,031.3,34.4,0000.0,0001.64,0003.23,0001.39
2023-07-21 04:10:00,SystemResetWarning,0840.5,5.01,000.00,030.3,027.7,000.0,038.5,031.3,34.5,0000.0,0001.64,0003.29,0001.38
2023-07-21 04:11:00,SystemResetWarning,0840.4,4.99,000.00,030.3,027.9,000.0,038.5,031.4,34.0,0000.0,0001.64,0002.75,0001.37
2023-07-21 04:12:00,SystemResetWarning,0840.4,4.99,000.00,030.4,028.1,000.0,038.6,031.4,34.0,0000.0,0001.65,0002.70,0001.38
2023-07-21 04:13:00,SystemResetWarning,0840.3,5.00,000.00,030.4,028.2,000.0,038.6,031.4,33.8,0000.0,0001.65,0002.69,0001.39
2023-07-21 04:14:00,SystemResetWarning,0840.3,5.00,000.00,030.4,028.3,000.0,038.6,031.5,33.8,0000.0,0001.64,0002.65,0001.39
2023-07-21 04:15:00,SystemResetWarning,0840.3,5.00,000.00,030.4,028.4,000.0,038.6,031.5,33.9,0000.0,0001.62,0002.60,0001.37
2023-07-21 04:16:00,SystemResetWarning,0840.3,5.00,000.00,030.4,028.5,000.0,038.7,031.5,33.7,0000.0,0001.62,0002.61,0001.37
2023-07-21 04:17:00,SystemResetWarning,0840.2,5.00,000.00,030.5,028.5,000.0,038.7,031.6,34.0,0000.0,0001.62,0002.59,0001.38
2023-07-21 04:18:00,SystemResetWarning,0840.2,5.00,000.00,030.5,028.6,000.0,038.7,031.6,34.3,0000.0,0001.61,0002.63,0001.37
2023-07-21 04:19:00,SystemResetWarning,0840.2,4.99,000.00,030.5,028.6,000.0,038.7,031.6,34.2,0000.0,0001.57,0002.58,0001.37
2023-07-21 04:20:00,SystemResetWarning,0840.0,5.00,000.00,030.5,028.7,000.0,038.8,031.7,34.2,0000.0,0001.58,0002.40,0001.36
2023-07-21 04:21:00,SystemResetWarning,0840.0,5.01,000.00,030.5,028.5,000.0,038.8,031.7,34.4,0000.0,0001.61,0002.31,0001.37
2023-07-21 04:22:00,SystemResetWarning,0840.0,5.00,000.00,030.5,026.7,000.0,038.6,031.5,34.6,0000.0,0001.60,0002.59,0001.37
2023-07-21 04:23:00,SystemResetWarning,0840.1,5.00,000.00,030.4,025.6,000.0,038.5,031.2,34.9,0000.0,0001.58,0002.82,0001.35
2023-07-21 04:24:00,SystemResetWarning,0840.1,4.99,000.00,030.3,025.5,000.0,038.5,031.0,35.2,0000.0,0001.60,0002.90,0001.35
2023-07-21 04:25:00,SystemResetWarning,0840.2,5.02,000.00,030.3,025.8,000.0,038.5,031.0,35.2,0000.0,0001.58,0002.87,0001.34
2023-07-21 04:26:00,SystemResetWarning,0840.2,4.99,000.00,030.5,026.2,000.0,038.5,031.2,34.8,0000.0,0001.57,0002.84,0001.35
2023-07-21 04:27:00,SystemResetWarning,0840.2,4.98,000.00,030.7,026.6,000.0,038.6,031.3,34.3,0000.0,0001.53,0002.76,0001.34
2023-07-21 04:28:00,SystemResetWarning,0840.3,5.01,000.00,030.8,027.0,000.0,038.6,031.3,34.2,0000.0,0001.52,0002.81,0001.33
2023-07-21 04:29:00,SystemResetWarning,0840.3,5.01,000.00,030.9,027.3,000.0,038.6,031.4,33.8,0000.0,0001.52,0002.96,0001.33
2023-07-21 04:30:00,SystemResetWarning,0840.2,5.00,000.00,030.9,027.5,000.0,038.7,031.4,33.7,0000.0,0001.51,0002.68,0001.33
2023-07-21 04:31:00,SystemResetWarning,0840.2,5.00,000.00,030.9,027.7,000.0,038.8,031.4,33.5,0000.0,0001.49,0002.64,0001.34
2023-07-21 04:32:00,SystemResetWarning,0840.2,5.00,000.00,030.9,027.9,000.0,038.8,031.4,33.5,0000.0,0001.45,0002.52,0001.34
2023-07-21 04:33:00,SystemResetWarning,0840.2,5.01,000.00,030.9,028.0,000.0,038.9,031.5,33.5,0000.0,0001.45,0002.50,0001.34
2023-07-21 04:34:00,SystemResetWarning,0840.2,5.00,000.00,030.9,028.1,000.0,038.9,031.5,33.7,0000.0,0001.46,0001.94,0001.34
2023-07-21 04:35:00,SystemResetWarning,0840.2,5.00,000.00,030.9,028.2,000.0,038.9,031.5,33.6,0000.0,0001.46,0001.92,0001.34
2023-07-21 04:36:00,SystemResetWarning,0840.2,5.00,000.00,030.9,028.3,000.0,039.0,031.6,33.6,0000.0,0001.47,0001.92,0001.36
2023-07-21 04:37:00,SystemResetWarning,0840.2,5.00,000.00,030.9,028.4,000.0,039.0,031.6,33.8,0000.0,0001.53,0002.01,0001.38
2023-07-21 04:38:00,SystemResetWarning,0840.2,5.00,000.00,030.9,028.4,000.0,039.0,031.6,33.8,0000.0,0001.54,0002.02,0001.39
2023-07-21 04:39:00,SystemResetWarning,0840.1,5.00,000.00,030.9,028.5,000.0,039.0,031.7,33.6,0000.0,0001.57,0002.05,0001.41
2023-07-21 04:40:00,SystemResetWarning,0840.0,5.00,000.00,030.9,028.6,000.0,039.1,031.7,33.7,0000.0,0001.62,0002.05,0001.43
2023-07-21 04:41:00,SystemResetWarning,0839.8,5.00,000.00,030.9,028.6,000.0,039.1,031.7,33.6,0000.0,0001.69,0002.29,0001.45
2023-07-21 04:42:00,SystemResetWarning,0839.7,5.00,000.00,030.9,028.6,000.0,039.1,031.8,33.5,0000.0,0001.71,0002.34,0001.45
2023-07-21 04:43:00,SystemResetWarning,0839.6,5.00,000.00,030.9,028.7,000.0,039.1,031.8,33.4,0000.0,0001.70,0002.34,0001.45
2023-07-21 04:44:00,SystemResetWarning,0839.3,5.00,000.00,030.9,028.7,000.0,039.1,031.8,33.2,0000.0,0001.70,0002.38,0001.45
2023-07-21 04:45:00,SystemResetWarning,0839.1,5.00,000.00,030.9,028.7,000.0,039.1,031.8,33.3,0000.0,0001.71,0002.41,0001.46
2023-07-21 04:46:00,SystemResetWarning,0839.2,5.00,000.00,030.9,028.7,000.0,039.2,031.8,33.6,0000.0,0001.69,0002.39,0001.46
2023-07-21 04:47:00,SystemResetWarning,0839.3,5.01,000.00,030.9,028.8,000.0,039.2,031.8,33.5,0000.0,0001.70,0002.43,0001.46
2023-07-21 04:48:00,SystemResetWarning,0839.5,4.99,000.00,030.9,028.1,000.0,039.1,031.8,33.4,0000.0,0001.69,0002.43,0001.44
2023-07-21 04:49:00,SystemResetWarning,0839.7,5.00,000.00,030.8,026.2,000.0,039.0,031.6,33.6,0000.0,0001.70,0002.46,0001.44
2023-07-21 04:50:00,SystemResetWarning,0839.7,5.01,000.00,030.7,025.5,000.0,038.9,031.3,33.7,0000.0,0001.75,0003.38,0001.44
2023-07-21 04:51:00,SystemResetWarning,0839.7,5.00,000.00,030.6,025.6,000.0,038.9,031.1,34.1,0000.0,0001.74,0003.93,0001.44
2023-07-21 04:52:00,SystemResetWarning,0839.7,5.00,000.00,030.4,026.0,000.0,038.9,031.0,34.4,0000.0,0001.70,0003.73,0001.43
2023-07-21 04:53:00,SystemResetWarning,0839.7,5.01,000.00,030.4,026.4,000.0,038.9,031.1,34.5,0000.0,0001.71,0003.83,0001.43
2023-07-21 04:54:00,SystemResetWarning,0839.7,5.00,000.00,030.3,026.7,000.0,038.9,031.2,34.5,0000.0,0001.75,0003.91,0001.44
2023-07-21 04:55:00,SystemResetWarning,0839.7,4.99,000.00,030.3,027.1,000.0,038.8,031.2,34.3,0000.0,0001.75,0004.17,0001.45
2023-07-21 04:56:00,SystemResetWarning,0839.6,4.99,000.00,030.3,027.4,000.0,038.8,031.3,34.4,0000.0,0001.78,0004.26,0001.46
2023-07-21 04:57:00,SystemResetWarning,0839.6,5.00,000.00,030.3,027.6,000.0,038.8,031.3,34.5,0000.0,0001.80,0004.32,0001.46
2023-07-21 04:58:00,SystemResetWarning,0839.6,5.00,000.00,030.3,027.8,000.0,038.8,031.4,34.4,0000.0,0001.81,0004.35,0001.46
2023-07-21 04:59:00,SystemResetWarning,0839.6,5.01,000.00,030.3,028.0,000.0,038.8,031.4,34.1,0000.0,0001.81,0004.35,0001.48
